FW6259 Weather Reports


Display with metric or nautical units.
time (UTC)temp
F
wind
direction
speed
MPH
gust
MPH
rain 1hr
in
rain 24hr
in
rain mn
in
humidity
%
barometer
mb
20260509093145 34 222 0.0 0.0 0.00 0.04 0.01 96 1002.5
20260509091502 34 222 0.0 0.0 0.00 0.04 0.01 96 1002.8
20260509084557 34 222 0.0 0.0 0.01 0.04 0.01 95 1003.3
20260509083047 34 222 0.0 0.0 0.01 0.04 0.01 95 1003.5
20260509081556 34 222 0.0 0.0 0.01 0.04 0.01 95 1003.6
20260509080053 35 222 0.0 0.0 0.00 0.03 0.00 95 1003.8
20260509074503 35 222 0.0 0.0 0.00 0.03 0.03 94 1004.0
20260509073056 35 222 0.0 0.0 0.01 0.03 0.03 94 1003.9
20260509071559 35 222 0.0 0.0 0.01 0.03 0.03 93 1004.1
20260509070044 35 222 0.0 0.0 0.01 0.03 0.03 93 1004.3
20260509064559 35 222 0.0 1.0 0.01 0.03 0.03 93 1004.3
20260509063055 36 222 0.0 0.0 0.00 0.02 0.02 93 1004.4
20260509061553 36 222 0.0 0.0 0.01 0.02 0.02 92 1004.7
20260509060002 36 222 0.0 0.0 0.01 0.02 0.02 91 1004.7
20260509054616 36 222 0.0 0.0 0.02 0.02 0.02 91 1004.7
20260509053141 36 222 0.0 1.0 0.02 0.02 0.02 90 1004.6
20260509051552 37 250 0.0 0.0 0.01 0.01 0.01 88 1004.8
20260509050005 37 250 0.0 0.0 0.01 0.01 0.01 87 1004.9
20260509044555 38 219 0.0 0.0 0.00 0.00 0.00 87 1005.1
20260509043050 38 150 0.0 0.0 0.00 0.00 0.00 84 1005.2
20260509041546 38 151 0.0 0.0 0.00 0.00 0.00 83 1005.3
20260509040113 39 304 0.0 1.0 0.00 0.00 0.00 82 1005.4
20260509034627 39 309 0.0 2.0 0.00 0.00 0.00 81 1005.5
20260509033049 39 129 0.0 0.0 0.00 0.00 0.00 80 1005.8
20260509031501 39 144 0.0 2.0 0.00 0.00 0.00 81 1005.9
20260509030109 40 226 0.0 1.0 0.00 0.00 0.00 82 1005.9
20260509024554 40 124 1.0 4.0 0.00 0.00 0.00 80 1006.0
20260509023052 40 156 1.0 5.0 0.00 0.00 0.00 77 1006.0
20260509021504 41 96 0.0 3.0 0.00 0.00 0.00 71 1006.2
20260509020056 42 182 2.0 8.0 0.00 0.00 0.00 68 1006.2
20260509014600 43 204 0.0 5.0 0.00 0.00 0.00 63 1006.1
20260509013102 43 162 3.0 7.0 0.00 0.00 0.00 62 1006.2
20260509011503 44 162 1.0 7.0 0.00 0.00 0.00 63 1006.4
20260509010056 43 232 3.0 11.0 0.00 0.00 0.00 65 1006.4
20260509004549 44 253 4.0 9.0 0.00 0.00 0.00 63 1006.5
20260509003134 44 241 4.0 9.0 0.00 0.00 0.00 62 1006.7
20260509001606 44 41 4.0 7.0 0.00 0.00 0.00 63 1006.9
20260509000106 44 84 4.0 9.0 0.00 0.00 0.00 61 1007.0
20260508234546 45 236 5.0 12.0 0.00 0.00 0.00 58 1007.2
20260508233058 45 194 5.0 10.0 0.00 0.00 0.00 56 1007.1
20260508231553 45 89 2.0 7.0 0.00 0.00 0.00 56 1007.3
20260508230043 45 193 4.0 11.0 0.00 0.00 0.00 58 1007.4
20260508224606 45 281 5.0 9.0 0.00 0.00 0.00 57 1007.7
20260508223046 44 195 4.0 13.0 0.00 0.00 0.00 57 1007.8
20260508221507 45 241 5.0 14.0 0.00 0.00 0.00 54 1007.8
20260508220055 46 151 3.0 10.0 0.00 0.00 0.00 53 1008.0
20260508214554 46 252 4.0 13.0 0.00 0.00 0.00 51 1008.1
20260508213046 46 103 3.0 10.0 0.00 0.00 0.00 54 1008.1
20260508211559 46 146 5.0 12.0 0.00 0.00 0.00 55 1008.4
20260508210048 46 214 4.0 10.0 0.00 0.00 0.00 48 1008.4
20260508204547 45 243 5.0 10.0 0.00 0.00 0.00 53 1008.5
20260508203001 46 223 4.0 10.0 0.00 0.00 0.00 50 1008.7
20260508201610 47 245 5.0 12.0 0.00 0.00 0.00 50 1008.7
20260508200108 46 219 4.0 9.0 0.00 0.00 0.00 49 1008.8
20260508193059 46 49 0.0 4.0 0.00 0.00 0.00 50 1009.0
20260508191504 45 247 2.0 4.0 0.00 0.00 0.00 49 1009.2
20260508190059 44 99 1.0 6.0 0.00 0.00 0.00 52 1009.4
20260508184608 44 79 4.0 8.0 0.00 0.00 0.00 52 1009.6
20260508183058 44 117 3.0 6.0 0.00 0.00 0.00 52 1009.8
20260508181503 44 167 2.0 5.0 0.00 0.00 0.00 52 1010.1
20260508180054 44 71 2.0 6.0 0.00 0.00 0.00 53 1010.3
20260508174602 43 99 3.0 6.0 0.00 0.00 0.00 53 1010.5
20260508173043 43 42 1.0 7.0 0.00 0.00 0.00 56 1010.8
20260508171601 42 36 1.0 6.0 0.00 0.00 0.00 57 1011.0
20260508170046 41 293 1.0 4.0 0.00 0.00 0.00 59 1011.2
20260508164504 41 44 1.0 7.0 0.00 0.00 0.00 59 1011.5
20260508163116 41 51 1.0 3.0 0.00 0.00 0.00 59 1011.8
20260508161558 40 82 0.0 3.0 0.00 0.00 0.00 61 1012.0
20260508160052 40 67 1.0 3.0 0.00 0.00 0.00 63 1012.1
20260508154552 39 86 1.0 2.0 0.00 0.00 0.00 65 1012.2
20260508153057 37 63 0.0 2.0 0.00 0.00 0.00 69 1012.5
20260508151554 35 67 0.0 0.0 0.00 0.00 0.00 72 1012.6
20260508150046 34 66 0.0 0.0 0.00 0.00 0.00 74 1012.8
20260508144503 35 66 0.0 0.0 0.00 0.00 0.00 73 1013.0
20260508143052 32 63 0.0 0.0 0.00 0.00 0.00 78 1013.2
20260508141547 30 219 0.0 0.0 0.00 0.00 0.00 81 1013.4
20260508140044 29 219 0.0 0.0 0.00 0.00 0.00 83 1013.6
20260508134601 27 219 0.0 0.0 0.00 0.00 0.00 85 1013.9
20260508133049 27 219 0.0 0.0 0.00 0.00 0.00 85 1013.9
20260508131505 27 229 0.0 0.0 0.00 0.00 0.00 85 1014.1
20260508130107 28 229 0.0 0.0 0.00 0.00 0.00 83 1014.1
20260508124548 29 229 0.0 0.0 0.00 0.00 0.00 82 1014.5
20260508123046 29 229 0.0 0.0 0.00 0.00 0.00 82 1014.5
20260508121559 29 229 0.0 1.0 0.00 0.00 0.00 80 1014.7
20260508120049 30 231 0.0 1.0 0.00 0.00 0.00 79 1014.8
20260508114600 31 11 0.0 1.0 0.00 0.00 0.00 76 1015.0
20260508113056 32 22 0.0 2.0 0.00 0.00 0.00 76 1015.2
20260508111550 33 77 0.0 1.0 0.00 0.00 0.00 74 1015.4
20260508110133 33 77 0.0 2.0 0.00 0.00 0.00 73 1015.6
20260508104603 33 61 0.0 1.0 0.00 0.00 0.00 74 1015.6
20260508103057 33 62 0.0 4.0 0.00 0.00 0.00 73 1015.8
20260508101552 33 32 0.0 4.0 0.00 0.00 0.00 73 1015.9
20260508100057 35 115 0.0 0.0 0.00 0.00 0.00 69 1015.9
20260508094558 35 207 0.0 2.0 0.00 0.00 0.00 68 1015.9